This demonstration page uses our WeatherBlox Daily Observations layout. Learn more.

Left ArrowRight Arrow

Hourly Observations for May 10, 2015

Temp ( °F °C ) Dew Point ( °F °C ) Humidity (%) Winds ( mph kmh ) Pressure ( in mb ) Visibility ( mi km ) Precip ( " mm )
12:06 am 00:06 Cloudy 63 17 61 16 94 94 SE 13 20 29.71 1006 10 16 0.00 0.00
12:18 am 00:18 Cloudy 63 17 61 16 94 94 SE 14 22 29.74 1007 10 16 0.00 0.00
12:34 am 00:34 Cloudy 63 17 61 16 94 94 SE 16 26 29.74 1007 10 16 0.00 0.00
12:53 am 00:53 Cloudy 63 17.2 61 16.1 93 93 SE 16 26 29.77 1008 10 16 0.00 0.03
1:12 am 01:12 Cloudy with Light Rain 63 17 61 16 94 94 SE 15 24 29.71 1006 10 16 0.00 0.00
1:19 am 01:19 Mostly Cloudy with Light Rain 63 17.2 59 15 87 87 SSE 16 26 29.71 1006 10 16 0.00 0.03
1:46 am 01:46 Mostly Cloudy 63 17 61 16 94 94 SE 16 26 29.71 1006 10 16 0.00 0.00
1:53 am 01:53 Cloudy with Light Rain 63 17.2 61 16.1 93 93 SSE 16 26 29.74 1007 10 16 0.00 0.03
2:53 am 02:53 Clear 59 15 55 12.8 87 87 SSE 12 19 29.72 1007 10 16 0.00 0.03
3:53 am 03:53 Clear 58 14.4 55 12.8 90 90 SSE 13 20 29.72 1006 10 16 0.00 0.00
4:41 am 04:41 Mostly Cloudy 58 14.4 53 11.7 84 84 SSE 9 15 29.68 1005 10 16 0.00 0.00
4:53 am 04:53 Cloudy 58 14.4 54 12.2 87 87 SSE 9 15 29.69 1005 10 16 0.00 0.00
5:27 am 05:27 Mostly Cloudy 57 13.9 54 12.2 90 90 SSE 9 15 29.68 1005 10 16 0.00 0.00
5:44 am 05:44 Cloudy 57 14 55 13 94 94 SSE 10 17 29.68 1005 10 16 0.00 0.00
5:53 am 05:53 Cloudy 58 14.4 56 13.3 93 93 SSE 10 17 29.69 1006 10 16 0.00 0.00
6:19 am 06:19 Cloudy 58 14.4 57 13.9 97 97 S 10 17 29.68 1005 8 13 0.00 0.00
6:53 am 06:53 Cloudy 60 15.6 58 14.4 93 93 S 14 22 29.70 1006 10 16 0.00 0.00
7:28 am 07:28 Cloudy 61 16 57 14 88 88 S 14 22 29.68 1005 10 16 0.00 0.00
7:53 am 07:53 Cloudy 60 15.6 56 13.3 86 86 S 15 24 29.72 1007 10 16 0.00 0.00
8:15 am 08:15 Partly Cloudy 61 16.1 55 12.8 81 81 S 12 19 29.68 1005 10 16 0.00 0.00
8:53 am 08:53 Mostly Sunny 60 15.6 53 11.7 78 78 SSW 18 30 29.73 1007 10 16 0.00 0.00
9:53 am 09:53 Partly Cloudy 57 13.9 51 10.6 81 81 WSW 15 24 29.73 1007 10 16 0.00 0.00
10:53 am 10:53 Partly Cloudy 54 12.2 46 7.8 75 75 WSW 15 24 29.72 1007 10 16 0.00 0.00
11:34 am 11:34 Mostly Cloudy 55 13 46 8 72 72 WSW 14 22 29.74 1007 10 16 0.00 0.00
11:53 am 11:53 Mostly Cloudy 55 12.8 46 7.8 72 72 WSW 14 22 29.75 1008 10 16 0.00 0.00
12:22 pm 12:22 Mostly Cloudy 55 13 46 8 72 72 SW 12 19 29.74 1007 10 16 0.00 0.00
12:33 pm 12:33 Mostly Cloudy 56 13.3 47 8.3 72 72 WSW 13 20 29.77 1008 10 16 0.00 0.00
12:53 pm 12:53 Mostly Cloudy 58 14.4 47 8.3 67 67 WSW 16 26 29.76 1008 10 16 0.00 0.00
1:53 pm 13:53 Mostly Cloudy 56 13.3 45 7.2 67 67 W 22 35 29.74 1007 10 16 0.00 0.00
2:25 pm 14:25 Partly Cloudy 58 14.4 45 7.2 62 62 WSW 17 28 29.74 1007 10 16 0.00 0.00
2:32 pm 14:32 Mostly Cloudy 57 14 45 7 63 63 W 21 33 29.74 1007 10 16 0.00 0.00
2:53 pm 14:53 Mostly Cloudy 56 13.3 44 6.7 65 65 W 20 31 29.77 1008 10 16 0.00 0.00
3:17 pm 15:17 Mostly Cloudy 58 14.4 43 6.1 58 58 WSW 16 26 29.74 1007 10 16 0.00 0.00
3:53 pm 15:53 Cloudy 56 13.3 42 5.6 60 60 W 22 35 29.78 1009 10 16 0.00 0.00
4:53 pm 16:53 Mostly Cloudy 55 12.8 41 5 59 59 W 22 35 29.79 1009 10 16 0.00 0.00
5:53 pm 17:53 Cloudy 52 11.1 39 3.9 61 61 W 20 31 29.82 1010 10 16 0.00 0.00
6:53 pm 18:53 Cloudy 51 10.6 37 2.8 59 59 W 21 33 29.83 1010 10 16 0.00 0.00
7:53 pm 19:53 Cloudy 48 8.9 35 1.7 61 61 WNW 21 33 29.87 1012 10 16 0.00 0.00
8:53 pm 20:53 Cloudy 47 8.3 35 1.7 63 63 WNW 23 37 29.88 1012 10 16 0.00 0.00
9:53 pm 21:53 Cloudy 46 7.8 35 1.7 66 66 WNW 16 26 29.92 1013 10 16 0.00 0.00
10:53 pm 22:53 Mostly Clear 43 6.1 33 0.6 68 68 NW 18 30 29.95 1014 10 16 0.00 0.00
11:53 pm 23:53 Clear 41 5 31 -0.6 67 67 WNW 22 35 29.96 1014 10 16 0.00 0.00

Powered by AerisWeather